Showing default

GALILEO 34 (139), 67162

Orbit data source: Space-Track

GALILEO 34 (139), 67162 is a payload satellite owned by EU SPA (ESA) that was launched on Wed, 17 Dec 2025 UTC via an ARIANE 62 launch vehicle from the French Guiana (FRGUI). Payload-class satellites include a variety of spacecraft equipped with specific instruments for various scientific and technological missions. These include communications satellites like Starlink; space stations such as the ISS; scientific satellites like the Hubble; Earth observation satellites from companies like Planet Labs, Umbra, and HawkEye 360; GPS; miniature CubeSats for education and research; and military/defense satellites.

Loading next visibility...
Identifier
67162, 2025-302C
Orbit
Active
Country
Flag of ESAESA
Related business
Manufacturer
OHB
Mission
Operational Civil Navigation
Bus & Motor
GALILEO, AOCS
Mass
733 kg wet, 660 kg dry
Launch date (UTC)
2025-12-17 (6 months ago)
Launch vehicle
ARIANE 62
Launch site
French Guiana (FRGUI)
Object type
Payload
Rocket body
Debris
Shape & HBR
Box + 2 Pan, 7.3 m
Radar Cross Section
9.223 m²

Expand to show TLE details & history
Last TLE update: 3 days ago

TLE from 3 days ago
0 GALILEO 34 (139)
1 67162U 25302C   26169.10704436 -.00000012  00000-0  00000-0 0  9997
2 67162  54.3376 102.1035 0002963 311.0872 230.0912  1.70473903  3190
Epoch: 2026-06-18T02:34Z
TLE epoch observation values (Epoch: 2026-06-18T02:34:08.632Z)
Latitude
-0.99976°
Longitude
-22.07442°
Altitude
23,228.208 km
Speed
3.669 km/s
True Right ascension
18h 51m 16s
True Declination
0° 59' 54"
Sunlit
Object was in daylight at epoch
Visualization orbit readout
Latitude
Unknown
Longitude
Unknown
Altitude
Unknown
Speed
Unknown
Apparent Right ascension
Unknown
Apparent Declination
Unknown
Sunlit
N/A
Visualization observer readout
Local Sidereal Time
07:19:33
Azimuth
Unknown
Elevation
Unknown
Doppler factor
Unknown
Orbital elements
Apogee altitude
23,230.998 km
Perigee altitude
23,213.456 km
Semi-major axis
29,600.364 km
Eccentricity
0.0003
Inclination
54.3376°
RAAN
102.1035°
Arg. of periapsis
311.0872°
True anomaly
230.06516°
Mean anomaly
230.0912°
Eccentric anomaly
230.07818°
Mean motion
0.42618 °/min
Orbital period
844.7 mins
BSTAR
0
Loading maneuver chart data...
Computing Atmospheric mass density...
Loading historical data...
Loading historical data...
Loading historical data...
Loading historical data...
Loading historical data...
Loading historical data...
Loading historical data...
Other satellites on launch #302 in the year 2025 (2025-12-17 UTC)

Documentation

Showing up to 5 results
|